EW2544 Weather Reports


time (UTC)temp
C
wind
direction
speed
KPH
gust
KPH
rain 1hr
cm
rain 24hr
cm
rain mn
cm
humidity
%
barometer
mb
20260510020016 13 98 17.7 27.4 0.00 0.23 0.08 91 1010.7
20260510015016 13 98 16.1 24.1 0.00 0.23 0.08 91 1010.8
20260510014016 13 110 17.7 25.7 0.00 0.23 0.08 91 1010.8
20260510013016 13 105 16.1 22.5 0.00 0.23 0.08 91 1011.2
20260510012016 13 108 17.7 24.1 0.00 0.23 0.08 91 1011.4
20260510011016 13 107 16.1 22.5 0.00 0.23 0.08 91 1011.5
20260510010036 13 102 19.3 29.0 0.00 0.23 0.08 91 1011.5
20260510005016 13 107 16.1 25.7 0.00 0.23 0.08 91 1011.5
20260510004016 13 103 17.7 24.1 0.00 0.23 0.08 91 1011.4
20260510003016 13 105 16.1 25.7 0.00 0.23 0.08 91 1011.5
20260510002036 13 115 17.7 27.4 0.00 0.23 0.08 91 1011.5
20260510001056 13 111 17.7 24.1 0.00 0.23 0.08 91 1011.3
20260510000016 13 102 19.3 30.6 0.00 0.23 0.08 92 1011.2
20260509235036 13 106 19.3 29.0 0.03 0.23 0.08 92 1011.4
20260509234016 13 111 19.3 29.0 0.05 0.23 0.08 91 1011.4
20260509233016 13 109 24.1 37.0 0.05 0.23 0.08 91 1011.3
20260509232016 13 107 20.9 37.0 0.05 0.23 0.08 91 1011.2
20260509231015 13 100 25.7 46.7 0.05 0.23 0.08 91 1010.7
20260509230015 13 102 37.0 49.9 0.08 0.23 0.08 91 1010.5
20260509225016 13 102 37.0 48.3 0.10 0.23 0.05 90 1010.8
20260509224015 13 101 33.8 49.9 0.10 0.20 0.05 90 1011.1
20260509223015 13 91 27.4 43.5 0.13 0.20 0.05 90 1011.5
20260509222015 14 96 29.0 46.7 0.15 0.20 0.05 90 1011.7
20260509221057 14 100 27.4 40.2 0.15 0.18 0.03 91 1011.9
20260509220015 14 98 29.0 45.1 0.15 0.15 0.15 91 1011.9
20260509215016 14 106 32.2 43.5 0.13 0.13 0.13 91 1011.8
20260509214016 14 107 35.4 51.5 0.10 0.10 0.10 90 1011.5
20260509213036 14 107 33.8 49.9 0.08 0.08 0.08 90 1011.1
20260509212016 14 103 30.6 41.8 0.05 0.05 0.05 90 1011.1
20260509211016 15 104 27.4 38.6 0.03 0.03 0.03 89 1011.2
20260509210016 15 98 24.1 38.6 0.00 0.00 0.00 88 1011.3
20260509205016 15 96 25.7 38.6 0.00 0.00 0.00 86 1011.4
20260509204016 15 94 24.1 40.2 0.00 0.00 0.00 84 1011.4
20260509203016 15 89 24.1 35.4 0.00 0.00 0.00 83 1011.3
20260509202016 15 94 20.9 32.2 0.00 0.00 0.00 82 1011.2
20260509201016 16 91 20.9 37.0 0.00 0.00 0.00 81 1011.1
20260509200016 16 94 24.1 40.2 0.00 0.00 0.00 80 1010.9
20260509195016 16 84 24.1 35.4 0.00 0.00 0.00 80 1010.7
20260509194036 16 93 22.5 35.4 0.00 0.00 0.00 79 1010.6
20260509193016 16 91 24.1 41.8 0.00 0.00 0.00 78 1010.5
20260509192016 16 104 29.0 41.8 0.00 0.00 0.00 77 1010.2
20260509191036 16 91 29.0 41.8 0.00 0.00 0.00 74 1009.9
20260509190016 16 83 25.7 45.1 0.00 0.00 0.00 72 1009.9
20260509185016 16 87 24.1 40.2 0.00 0.00 0.00 70 1009.8
20260509184016 16 93 30.6 51.5 0.00 0.00 0.00 69 1009.7
20260509183016 16 83 29.0 45.1 0.00 0.00 0.00 67 1009.8
20260509182016 16 84 24.1 51.5 0.00 0.00 0.00 65 1009.9
20260509181057 16 89 24.1 40.2 0.00 0.00 0.00 65 1009.9
20260509180016 17 84 24.1 37.0 0.00 0.00 0.00 63 1010.1
20260509175015 17 86 27.4 40.2 0.00 0.00 0.00 63 1010.0
20260509174036 17 97 27.4 43.5 0.00 0.00 0.00 62 1009.9
20260509173015 17 94 29.0 43.5 0.00 0.00 0.00 62 1009.9
20260509172016 17 98 30.6 49.9 0.00 0.00 0.00 62 1010.0
20260509171016 17 100 29.0 45.1 0.00 0.00 0.00 61 1009.9
20260509170016 17 102 30.6 49.9 0.00 0.00 0.00 63 1009.9
20260509165015 17 102 32.2 51.5 0.00 0.00 0.00 62 1009.8
20260509164015 17 101 27.4 40.2 0.00 0.00 0.00 64 1009.8
20260509163035 17 101 29.0 46.7 0.00 0.00 0.00 64 1009.6
20260509162036 17 100 27.4 43.5 0.00 0.00 0.00 65 1009.6
20260509161016 17 93 29.0 43.5 0.00 0.00 0.00 67 1009.6
20260509160015 17 93 29.0 51.5 0.00 0.00 0.00 71 1009.6
20260509155036 17 101 32.2 48.3 0.00 0.00 0.00 71 1009.7
20260509154015 17 94 32.2 56.3 0.00 0.00 0.00 71 1009.8
20260509153016 17 97 33.8 49.9 0.00 0.00 0.00 73 1010.0
20260509152016 17 97 32.2 48.3 0.00 0.00 0.00 74 1010.2
20260509151015 17 98 29.0 48.3 0.00 0.00 0.00 74 1010.3
20260509150025 17 98 33.8 53.1 0.00 0.00 0.00 74 1010.4
20260509145015 17 98 30.6 53.1 0.00 0.00 0.00 75 1010.5
20260509144015 17 94 33.8 49.9 0.00 0.00 0.00 75 1010.6
20260509143015 18 103 30.6 48.3 0.00 0.00 0.00 75 1010.7
20260509142015 18 102 33.8 49.9 0.00 0.00 0.00 74 1010.8
20260509141015 18 106 30.6 51.5 0.00 0.00 0.00 73 1010.9
20260509140015 18 100 38.6 57.9 0.00 0.00 0.00 71 1010.9
20260509135015 18 104 38.6 57.9 0.00 0.00 0.00 70 1011.0
20260509134035 18 106 35.4 49.9 0.00 0.00 0.00 70 1011.0
20260509133035 18 101 35.4 61.2 0.00 0.00 0.00 70 1011.1
20260509132015 18 99 38.6 57.9 0.00 0.00 0.00 70 1011.1
20260509131015 18 98 30.6 53.1 0.00 0.00 0.00 71 1011.2
20260509130015 18 95 40.2 59.5 0.00 0.00 0.00 70 1011.4
20260509125017 19 101 35.4 57.9 0.00 0.00 0.00 70 1011.3
20260509124015 19 95 38.6 57.9 0.00 0.00 0.00 69 1011.2
20260509123017 19 99 40.2 61.2 0.00 0.00 0.00 69 1011.2
20260509122017 20 108 40.2 53.1 0.00 0.00 0.00 68 1011.2
20260509121017 19 102 38.6 59.5 0.00 0.00 0.00 68 1011.2
20260509120017 19 96 43.5 59.5 0.00 0.00 0.00 68 1011.2
20260509115037 19 95 40.2 59.5 0.00 0.00 0.00 68 1011.3
20260509114017 19 101 33.8 51.5 0.00 0.00 0.00 70 1011.4
20260509113018 19 97 38.6 54.7 0.00 0.00 0.00 71 1011.6
20260509112022 19 95 37.0 61.2 0.00 0.00 0.00 72 1011.8
20260509111017 19 95 38.6 59.5 0.00 0.00 0.00 72 1011.9
20260509110017 18 95 35.4 53.1 0.00 0.00 0.00 72 1012.0
20260509105016 18 103 38.6 56.3 0.00 0.00 0.00 74 1012.1
20260509104017 18 100 37.0 54.7 0.00 0.00 0.00 75 1012.2
20260509103017 18 98 37.0 51.5 0.00 0.00 0.00 75 1012.2
20260509102037 18 94 30.6 45.1 0.00 0.00 0.00 76 1012.2
20260509101017 18 98 32.2 49.9 0.00 0.00 0.00 77 1012.2
20260509100016 18 95 33.8 46.7 0.00 0.00 0.00 77 1012.3
20260509095017 18 100 35.4 51.5 0.00 0.00 0.00 78 1012.3
20260509094021 18 95 27.4 45.1 0.00 0.00 0.00 79 1012.2
20260509093017 18 110 32.2 46.7 0.00 0.00 0.00 78 1012.4
20260509092016 18 101 30.6 45.1 0.00 0.00 0.00 79 1012.1
20260509091017 17 99 33.8 45.1 0.00 0.00 0.00 80 1012.1
20260509090017 17 95 30.6 49.9 0.00 0.00 0.00 81 1012.0
20260509085016 17 89 32.2 46.7 0.00 0.00 0.00 81 1012.1
20260509084037 17 104 27.4 45.1 0.00 0.00 0.00 82 1012.2
20260509083016 17 103 32.2 51.5 0.00 0.00 0.00 83 1012.2
20260509082016 17 101 32.2 51.5 0.00 0.00 0.00 84 1012.2
20260509081016 17 97 30.6 46.7 0.00 0.00 0.00 84 1012.3
20260509080016 17 103 30.6 49.9 0.00 0.00 0.00 84 1012.5
20260509075017 17 104 29.0 46.7 0.00 0.00 0.00 84 1012.6
20260509074036 16 108 27.4 37.0 0.00 0.00 0.00 86 1012.7
20260509073017 16 106 20.9 30.6 0.00 0.00 0.00 86 1013.0
20260509072017 16 100 24.1 40.2 0.00 0.00 0.00 86 1013.1
20260509071016 16 98 25.7 41.8 0.00 0.00 0.00 86 1013.2
20260509070016 16 100 22.5 46.7 0.00 0.00 0.00 86 1013.2
20260509065016 16 111 25.7 38.6 0.00 0.00 0.00 87 1013.4
20260509064017 16 110 24.1 40.2 0.00 0.00 0.00 87 1013.4
20260509063036 15 102 22.5 32.2 0.00 0.00 0.00 88 1013.2
20260509062016 16 107 19.3 32.2 0.00 0.00 0.00 87 1013.3
20260509061016 16 108 20.9 32.2 0.00 0.00 0.00 87 1013.4
20260509060016 16 102 22.5 33.8 0.00 0.00 0.00 87 1013.2
20260509055016 16 105 22.5 41.8 0.00 0.00 0.00 86 1013.0
20260509054016 15 95 24.1 46.7 0.00 0.00 0.00 86 1013.0
20260509053016 15 97 22.5 33.8 0.00 0.00 0.00 87 1013.0
20260509052036 15 100 20.9 32.2 0.00 0.00 0.00 88 1013.1
20260509051016 15 102 19.3 30.6 0.00 0.00 0.00 88 1013.0
20260509050016 15 106 19.3 32.2 0.00 0.00 0.00 88 1013.0
20260509045016 15 109 19.3 30.6 0.00 0.00 0.00 87 1013.0
20260509044116 15 109 20.9 32.2 0.00 0.00 0.00 88 1012.9
20260509043016 15 108 20.9 35.4 0.00 0.00 0.00 88 1012.9
20260509042016 15 103 24.1 35.4 0.00 0.00 0.00 87 1012.8
20260509041056 15 99 24.1 38.6 0.00 0.00 0.00 87 1012.7
20260509040016 15 105 20.9 30.6 0.00 0.00 0.00 88 1012.7
20260509035036 15 109 16.1 27.4 0.00 0.00 0.00 88 1012.9
20260509034036 15 109 14.5 25.7 0.00 0.00 0.00 88 1012.9
20260509033016 15 116 16.1 24.1 0.00 0.00 0.00 88 1013.0
20260509032016 15 115 14.5 25.7 0.00 0.00 0.00 88 1013.1
20260509031016 15 110 17.7 27.4 0.00 0.00 0.00 87 1013.0
20260509030015 15 111 19.3 29.0 0.00 0.00 0.00 87 1012.9
20260509025016 15 117 16.1 24.1 0.00 0.00 0.00 87 1013.1
20260509024015 15 114 19.3 27.4 0.00 0.00 0.00 88 1013.0
20260509023016 15 118 14.5 25.7 0.00 0.00 0.00 88 1013.0
20260509022015 15 110 19.3 27.4 0.00 0.00 0.00 87 1013.0
20260509021036 15 111 17.7 27.4 0.00 0.00 0.00 87 1013.0